This is the latest recevied weather packets stored in our database for station/object K7ZQU-7. If no packets are shown the sender has not sent any weather packets the latest 10 day(s).
| Time | Temp. | Humidity | Pressure | Rain* | Wind** | Luminosity | Snow |
|---|---|---|---|---|---|---|---|
| 1777554821 | 3.89° C | 74% | 1017.8 hPa | 0 mm | 0.89 m/s, 146° | - | - |
| 1777554522 | 3.89° C | 74% | 1017.8 hPa | 0 mm | 0.45 m/s, 249° | - | - |
| 1777554220 | 3.89° C | 74% | 1017.9 hPa | 0 mm | 0.89 m/s, 134° | - | - |
| 1777553921 | 3.89° C | 74% | 1017.9 hPa | 0 mm | 1.34 m/s, 138° | - | - |
| 1777553622 | 3.89° C | 74% | 1017.9 hPa | 0 mm | 1.79 m/s, 218° | - | - |
| 1777553323 | 3.89° C | 72% | 1017.9 hPa | 0 mm | 1.34 m/s, 225° | - | - |
| 1777553024 | 4.44° C | 72% | 1018.1 hPa | 0 mm | 1.79 m/s, 205° | - | - |
| 1777552722 | 3.89° C | 73% | 1018.1 hPa | 0 mm | 0 m/s | - | - |
| 1777552423 | 3.89° C | 73% | 1018.2 hPa | 0 mm | 0.89 m/s, 208° | - | - |
| 1777552123 | 3.89° C | 72% | 1018.2 hPa | 0 mm | 1.79 m/s, 172° | - | - |
| 1777551824 | 3.89° C | 72% | 1018.2 hPa | 0 mm | 0 m/s | - | - |
| 1777551525 | 3.33° C | 73% | 1018.2 hPa | 0 mm | 0.89 m/s, 174° | - | - |
| 1777551223 | 3.33° C | 71% | 1018.1 hPa | 0 mm | 0.45 m/s, 187° | - | - |
| 1777550975 | 3.33° C | 71% | 1018.1 hPa | 0 mm | 0 m/s | - | - |
| 1777550924 | 3.33° C | 71% | 1018.1 hPa | 0 mm | 0 m/s | - | - |
| 1777550625 | 3.89° C | 70% | 1018.2 hPa | 0 mm | 0.89 m/s, 210° | - | - |
| 1777550326 | 3.89° C | 70% | 1018.2 hPa | 0 mm | 0.89 m/s, 201° | - | - |
| 1777550027 | 3.33° C | 71% | 1018.3 hPa | 0 mm | 0 m/s | - | - |
| 1777549725 | 3.33° C | 72% | 1018.3 hPa | 0 mm | 0.89 m/s, 181° | - | - |
| 1777549425 | 3.33° C | 73% | 1018.3 hPa | 0 mm | 0.45 m/s, 204° | - | - |
| 1777549126 | 3.33° C | 73% | 1018.3 hPa | 0 mm | 0.89 m/s, 194° | - | - |
| 1777548827 | 2.78° C | 73% | 1018.4 hPa | 0 mm | 0.45 m/s, 217° | - | - |
| 1777548565 | 2.78° C | 73% | 1018.4 hPa | 0 mm | 0 m/s | - | - |
| 1777548528 | 2.78° C | 73% | 1018.4 hPa | 0 mm | 0 m/s | - | - |
| 1777548226 | 2.78° C | 73% | 1018.4 hPa | 0 mm | 0.45 m/s, 201° | - | - |
* Rain latest hour (hover to see other rain measurements)
** Current wind speed in m/s (hover to see current wind gust speed)